EDT,Max TemperatureF,Mean TemperatureF,Min TemperatureF,Max Dew PointF,MeanDew PointF,Min DewpointF,Max Humidity, Mean Humidity, Min Humidity, Max Sea Level PressureIn, Mean Sea Level PressureIn, Min Sea Level PressureIn, Max VisibilityMiles, Mean VisibilityMiles, Min VisibilityMiles, Max Wind SpeedMPH, Mean Wind SpeedMPH, Max Gust SpeedMPH,PrecipitationIn, CloudCover, Events, WindDirDegrees
2013-9-1,82,72,62,67,62,59,93,74,54,29.84,29.76,29.66,10,10,7,15,4,22,0.04,4,,317
2013-9-2,64,60,56,58,53,48,86,75,64,29.95,29.88,29.80,10,9,2,21,12,26,0.04,8,Rain,332
2013-9-3,74,65,56,53,50,48,86,64,41,30.02,29.97,29.94,10,10,10,15,7,21,0.00,4,,299
2013-9-4,69,62,54,61,55,44,90,68,45,30.15,30.04,29.94,10,10,10,13,5,20,0.00,4,,324
2013-9-5,65,56,47,46,43,38,93,66,39,30.32,30.26,30.16,10,10,10,10,4,16,0.00,2,,44
2013-9-6,79,62,45,57,49,42,86,64,41,30.25,30.13,29.96,10,10,10,14,4,20,0.00,4,,230
2013-9-7,78,73,67,69,65,57,90,76,61,30.00,29.91,29.85,10,9,3,15,5,23,0.22,8,Rain,285
2013-9-8,73,66,58,63,54,46,87,64,41,30.14,30.07,30.00,10,10,10,14,6,18,0.00,5,,73
2013-9-9,81,70,58,70,59,48,84,74,64,30.04,29.91,29.72,10,10,8,14,4,20,0.01,6,Rain,176
2013-9-10,90,81,71,71,67,59,79,60,40,29.97,29.83,29.72,10,10,8,18,7,25,T,3,,250
2013-9-11,78,72,65,66,65,62,93,76,58,29.99,29.95,29.90,10,9,2,16,6,23,0.45,7,Rain-Thunderstorm,260
2013-9-12,70,62,54,65,54,43,93,75,56,30.07,29.97,29.91,10,10,10,22,10,31,T,6,,342
2013-9-13,58,50,42,46,41,38,89,68,47,30.19,30.14,30.06,10,10,9,17,9,26,0.01,5,Rain,11
2013-9-14,68,54,40,49,43,37,92,66,39,30.17,30.10,30.01,10,10,10,15,4,21,0.00,3,,251
2013-9-15,61,57,53,56,52,46,93,80,67,30.20,30.05,29.99,10,9,2,15,6,24,0.21,7,Rain,285
2013-9-16,57,50,43,45,41,37,92,72,51,30.42,30.34,30.21,10,10,10,14,6,20,0.00,5,,29
2013-9-17,68,55,41,45,41,37,89,61,32,30.41,30.32,30.19,10,10,10,9,2,13,0.00,1,,166
2013-9-18,75,62,49,58,51,43,83,66,49,30.17,30.04,29.94,10,10,10,10,3,18,0.01,4,,173
2013-9-19,79,71,62,68,64,57,100,84,67,29.97,29.88,29.74,10,8,1,18,6,25,1.62,7,Rain-Thunderstorm,210
2013-9-20,72,67,62,67,64,58,93,83,73,29.76,29.70,29.66,10,8,2,15,6,22,0.14,7,Rain,233
2013-9-21,62,56,49,54,48,39,80,70,59,29.92,29.79,29.72,10,10,6,20,11,25,0.08,8,Rain,333
2013-9-22,53,49,44,44,40,36,86,70,54,30.12,30.04,29.93,10,10,7,15,5,20,T,8,Rain,17
2013-9-23,65,52,38,47,41,36,93,70,47,30.20,30.15,30.12,10,10,10,9,2,13,0.00,1,,126
2013-9-24,66,54,42,51,45,40,93,73,52,30.17,30.09,30.02,10,10,8,8,3,12,0.00,1,,89
2013-9-25,69,56,42,55,47,40,96,72,48,30.06,30.02,29.99,10,10,8,9,2,13,0.00,2,,33
2013-9-26,74,59,43,55,47,41,93,63,33,30.13,30.10,30.03,10,10,7,8,2,10,0.00,0,,40
2013-9-27,79,63,46,52,48,44,93,64,35,30.21,30.16,30.13,10,10,10,9,2,15,0.00,1,,182
2013-9-28,78,66,54,55,52,51,86,63,40,30.14,30.02,29.83,10,10,8,14,6,23,T,3,,167
2013-9-29,72,59,45,61,51,44,93,69,45,30.03,29.96,29.84,10,9,4,23,5,28,0.09,4,Rain,312
2013-9-30,71,57,42,53,46,40,96,67,37,30.01,29.94,29.86,10,10,10,10,2,15,0.00,3,,181